ATLAS 5 CENTAUR DEB, 43973

Orbit data source: Space-Track

ATLAS 5 CENTAUR DEB, 43973 is space debris in HEO originally from a launch on Wed, 17 Sep 2014 UTC launched from the Air Force Eastern Test Range (AFETR). Debris objects in space refer to the collection of defunct objects orbiting the Earth. Examples of debris include non-operational satellites, rocket bodies, and fragments generated from explosions, collisions, or faulty payload assembly.

Loading next visibility...
Identifier
43973, 2014-055AC
Orbit
HEO
Country
Flag of USUS
Related business
Flag of USUnited Launch Alliance/Lockheed Martin (US)
Manufacturer
Unknown
Mission
Spacecraft
Bus & Motor
Unknown
Mass
Unknown
Launch date (UTC)
2014-09-17 (11 years ago)
Launch vehicle
Unknown
Launch site
Air Force Eastern Test Range (AFETR)
Object type
Payload
Rocket body
Debris
Shape & HBR
Unknown shape, 1.1 m
Radar Cross Section
Small (<0.1 m²)

Expand to show TLE details & history
Last TLE update: 2 days ago

TLE from 2 days ago
0 ATLAS 5 CENTAUR DEB
1 43973U 14055AC  25349.02862466  .00000012  00000-0  00000-0 0  9991
2 43973  20.8655 127.5573 5018673 200.6023 128.4863  1.92512573 51314
Epoch: 2025-12-15T00:41Z
TLE epoch observation values (Epoch: 2025-12-15T00:41:13.170Z)
Latitude
-0.00004°
Longitude
33.26279°
Altitude
32,131.217 km
Speed
2.47 km/s
True Right ascension
08h 30m 00s
True Declination
0° 00' 00"
Sunlit
Object was in daylight at epoch
Visualization orbit readout
Latitude
Unknown
Longitude
Unknown
Altitude
Unknown
Speed
Unknown
Apparent Right ascension
Unknown
Apparent Declination
Unknown
Sunlit
N/A
Visualization observer readout
Local Sidereal Time
12:12:22
Azimuth
Unknown
Elevation
Unknown
Doppler factor
Unknown
Orbital elements
Apogee altitude
34,619.585 km
Perigee altitude
7,219.806 km
Semi-major axis
27,297.833 km
Eccentricity
0.50187
Inclination
20.8655°
RAAN
127.5573°
Arg. of periapsis
200.6023°
True anomaly
159.40728°
Mean anomaly
128.4863°
Eccentric anomaly
144.98542°
Mean motion
0.48123 °/min
Orbital period
748.09 mins
BSTAR
0
Loading maneuver chart data...
Computing Atmospheric mass density...

Documentation

Showing up to 5 results
|